Theta_e
332 331 332 330 329 330 329 329 329 330 331 331 329 325 324 322 324 331 334 342 347 347 349 350 352 360 361 352 351 352 353 354 353 353 352 352 352 352 352 351 352 351 350 349 346 345 347 347 347 346 344 344 344 344 343 344 344 344 346 347 346 346 345 345 347 347 346 348 350 347 347 350 352 352 351 351 351 350 351 351 347 345 347 346 346 347
330 329 330 329 329 329 330 329 329 329 329 331 329 326 324 322 323 328 332 342 347 346 347 349 349 351 353 351 351 352 352 353 353 353 353 352 352 352 352 352 351 351 351 349 347 345 346 347 347 347 345 343 344 345 342 342 344 344 345 345 345 346 344 341 342 343 342 344 346 343 345 350 351 351 351 351 351 350 350 351 347 345 347 346 345 346
328 327 328 329 330 330 329 330 329 329 329 329 328 324 323 323 324 326 329 343 348 347 347 349 348 349 351 351 352 352 351 353 353 352 353 353 353 353 352 352 351 352 351 350 348 346 347 347 347 347 345 343 345 345 341 340 343 344 345 344 344 345 342 338 338 337 336 339 341 340 342 348 349 349 350 349 349 348 348 349 345 344 346 346 346 346
326 327 328 328 329 330 330 329 327 328 327 328 327 322 322 324 323 322 327 340 346 346 348 348 347 348 351 352 351 352 352 352 353 353 352 354 354 353 353 353 351 352 352 351 350 347 348 348 347 346 345 344 345 344 342 342 342 344 344 343 343 342 339 335 334 333 333 335 338 338 339 344 347 347 348 348 349 348 346 347 343 342 344 344 345 346
327 328 329 328 328 329 328 328 328 325 324 326 326 324 322 323 324 322 326 332 335 343 349 348 347 347 348 351 351 351 352 352 352 353 353 354 355 353 353 353 353 352 351 351 351 349 348 348 347 347 346 345 345 344 343 343 342 343 344 342 342 340 337 334 332 332 333 334 337 339 339 341 341 343 346 348 348 348 347 347 342 339 341 342 344 345
327 327 327 328 327 328 326 327 327 325 322 323 325 327 325 325 325 324 326 326 323 331 343 348 344 344 348 350 352 350 352 353 351 352 354 355 355 353 353 353 352 352 351 351 351 349 349 348 348 348 347 346 346 345 344 343 341 341 343 343 341 340 336 333 332 331 333 333 334 338 340 342 340 341 344 345 346 347 348 346 341 338 339 342 343 343
326 326 326 326 327 327 327 327 327 326 322 320 324 328 327 326 325 324 323 323 319 323 337 345 343 343 347 348 351 350 350 352 349 351 355 356 355 353 353 353 352 353 352 351 350 349 349 349 349 347 347 347 346 346 344 342 341 341 343 343 341 340 338 333 331 331 331 332 331 335 341 343 341 340 343 344 344 346 346 344 341 339 338 340 342 344
326 327 326 326 327 326 327 326 327 327 323 321 326 327 327 327 324 324 323 321 321 322 329 333 338 344 344 346 349 349 348 350 350 353 358 357 355 354 352 352 352 352 352 350 350 350 349 349 348 348 348 347 346 346 344 342 342 342 343 342 340 341 338 333 331 330 330 330 329 334 342 344 342 341 342 342 341 344 345 344 344 342 338 338 340 343
325 326 327 326 326 326 327 327 327 328 325 325 328 327 327 327 325 325 322 320 323 321 320 323 329 336 338 344 348 349 348 350 352 356 359 357 355 353 352 351 351 352 352 350 350 350 350 349 349 349 348 347 347 346 345 345 344 343 342 341 341 342 339 334 331 330 329 329 327 332 340 344 343 342 342 340 338 341 344 344 345 345 342 341 339 341
322 324 324 324 325 325 326 327 328 326 326 327 327 327 327 327 326 326 323 321 322 320 317 320 322 326 330 340 346 346 347 350 353 355 357 356 354 353 351 351 350 350 350 349 350 350 350 350 349 349 349 348 348 348 347 347 345 344 343 342 343 343 339 334 331 330 329 328 328 330 337 342 343 343 343 339 337 342 343 343 344 345 345 343 340 339
321 321 322 323 325 326 326 327 326 326 327 327 328 328 326 328 328 327 327 326 320 320 321 320 320 322 325 334 344 345 346 350 351 353 355 355 353 353 352 351 350 349 349 349 350 351 351 351 349 350 350 349 348 348 348 348 347 346 345 344 344 343 340 334 330 330 328 327 328 327 330 337 340 340 339 336 336 341 343 342 343 344 345 343 342 339
318 318 321 322 324 326 326 325 326 326 326 327 327 327 324 324 325 323 327 327 320 320 322 321 320 320 321 330 343 346 347 349 349 352 354 354 352 353 352 350 350 349 350 351 351 352 352 350 350 351 350 350 350 349 349 349 348 348 348 347 345 345 342 335 330 329 329 327 327 327 326 330 334 334 333 331 332 335 338 339 340 342 343 341 340 338
317 318 318 321 323 326 326 325 325 326 326 325 326 324 322 321 320 319 321 321 320 321 321 320 320 318 321 330 339 344 345 346 347 350 353 353 352 353 352 350 350 349 351 352 353 353 352 351 350 351 351 351 350 350 350 350 349 349 349 349 347 346 343 338 331 327 328 327 326 327 326 326 329 329 328 328 327 328 330 332 333 335 336 334 333 331
317 319 318 319 321 324 326 325 322 322 325 325 324 323 321 320 318 319 320 319 320 321 320 320 320 317 320 328 333 337 341 345 347 348 352 353 352 352 352 350 349 349 350 351 351 352 353 352 351 351 351 352 351 351 351 350 351 351 351 351 349 347 345 340 333 328 326 325 325 327 327 326 326 326 326 326 326 327 326 327 328 328 329 327 327 327
315 318 320 318 319 322 325 326 324 324 324 325 325 325 322 320 318 319 320 320 321 321 320 319 319 317 318 327 332 331 332 342 348 347 350 352 352 352 351 351 350 348 349 351 352 353 353 352 351 351 351 351 352 351 351 351 351 352 352 352 351 349 347 344 338 331 327 324 323 325 326 326 326 326 326 326 326 326 326 326 326 326 326 326 325 326
315 316 319 319 318 321 323 323 326 325 323 326 326 324 321 321 320 319 320 321 320 320 320 319 318 321 324 330 333 330 328 336 346 348 349 350 352 352 351 351 350 349 350 352 353 353 354 352 352 352 351 352 353 352 353 352 352 353 353 353 353 351 348 346 341 334 328 326 323 323 324 326 327 326 326 326 326 326 326 326 327 326 326 326 325 326
315 316 318 318 318 320 321 321 323 324 323 324 323 320 323 324 322 319 319 320 318 319 320 319 319 321 323 326 327 329 328 331 344 349 349 349 352 351 351 351 350 350 351 352 353 353 353 353 353 353 352 352 353 353 354 354 353 353 353 354 354 353 351 347 344 338 331 328 326 322 322 323 325 326 326 326 326 326 327 326 326 326 326 326 326 326
315 315 316 317 317 319 319 319 321 324 324 323 321 321 324 325 323 320 319 320 320 320 320 319 320 320 319 322 326 328 327 329 345 352 350 350 351 351 351 350 350 350 350 351 353 353 354 354 353 353 353 353 354 354 355 354 354 354 354 355 355 354 353 351 347 343 337 332 329 326 323 322 323 325 326 327 327 326 326 327 326 326 326 326 326 326
315 315 316 316 316 317 317 319 321 323 324 323 322 325 325 321 320 320 319 319 321 320 320 320 321 320 319 321 324 326 327 328 344 351 351 351 351 350 351 351 350 350 351 353 354 354 354 355 354 354 353 353 353 354 355 355 354 355 355 356 356 355 355 353 350 346 342 336 332 329 326 324 322 323 324 326 326 327 326 327 327 326 326 326 325 325
315 315 315 315 316 316 316 319 321 321 323 324 324 325 324 322 321 322 320 320 320 321 321 322 321 322 326 329 325 325 329 331 342 350 350 350 351 351 351 351 351 351 352 354 355 355 354 354 354 355 354 353 353 353 355 355 355 355 355 356 357 357 357 355 353 350 347 342 336 333 330 327 325 323 323 323 324 325 325 326 326 326 325 325 325 325
317 316 315 316 317 317 316 319 320 318 319 322 322 322 322 323 324 323 321 319 320 321 322 323 322 324 333 336 328 327 332 332 340 348 349 350 351 351 350 351 351 351 351 353 353 354 354 354 354 355 355 354 354 355 355 355 356 355 356 356 357 358 358 357 356 353 350 346 341 337 333 331 329 325 324 323 322 322 323 324 324 324 324 324 324 325
318 318 317 316 316 317 316 317 318 318 318 319 320 321 321 322 322 321 323 323 319 319 321 322 322 325 333 336 334 331 332 331 335 344 347 349 351 350 349 351 351 349 350 351 352 354 354 355 354 354 355 355 354 356 356 356 356 356 356 357 357 358 358 358 357 356 353 350 346 341 337 334 332 329 327 325 324 323 323 323 323 323 323 323 324 325
316 319 319 317 316 316 317 318 318 318 319 319 320 322 323 323 321 319 322 325 321 319 320 321 320 324 330 335 335 333 332 331 331 340 347 349 349 350 350 350 351 349 350 351 351 353 354 355 355 355 355 354 354 356 356 355 356 356 357 357 357 358 358 357 358 357 355 353 349 346 340 337 335 333 330 329 327 326 324 324 323 323 324 323 324 325
315 317 318 317 318 317 317 317 316 317 318 319 321 323 323 324 322 321 322 323 322 321 321 321 320 324 330 336 335 334 335 331 329 341 349 350 348 350 351 351 351 349 350 351 352 354 355 356 358 357 354 353 354 355 356 356 357 358 358 358 358 358 358 358 358 357 357 355 352 350 346 341 337 336 334 332 330 329 327 327 326 326 326 326 326 327
313 316 317 316 319 321 319 316 318 321 321 319 320 322 323 323 323 323 323 322 324 325 323 323 322 325 333 339 338 337 337 335 335 343 349 349 349 351 351 351 351 350 350 351 351 353 355 356 357 356 355 353 354 355 356 358 358 358 359 359 358 359 359 359 359 359 359 358 356 353 349 345 341 339 337 334 333 331 331 330 329 329 329 330 331 330
314 314 315 316 318 321 320 320 321 322 320 318 318 319 320 323 323 323 323 323 326 327 324 324 325 330 339 341 338 340 341 340 341 342 344 344 346 349 350 351 352 351 351 351 351 353 354 355 356 355 354 353 354 354 355 357 359 359 359 359 359 360 361 361 361 361 361 360 358 356 353 349 345 342 339 337 336 335 334 334 334 333 333 333 335 335
313 313 313 315 316 316 317 318 318 318 316 316 317 316 318 321 321 322 323 324 325 326 325 327 328 330 338 342 339 341 343 342 342 341 341 344 345 348 349 350 350 351 352 352 352 352 354 354 354 353 352 352 353 355 355 356 358 359 359 359 358 359 360 361 363 363 363 362 360 358 355 351 347 343 341 339 338 337 336 336 338 337 335 335 337 338
314 313 313 313 313 312 313 313 313 314 315 314 314 315 316 319 319 320 322 323 324 325 325 330 330 326 332 341 341 341 343 343 341 341 342 346 348 348 349 350 350 351 351 351 350 352 352 353 353 351 349 350 351 353 354 355 356 356 357 357 356 357 359 360 362 363 364 364 362 360 357 353 349 346 343 341 340 339 338 339 340 340 340 339 339 340
313 313 312 311 312 311 311 312 312 313 313 313 314 314 314 317 318 319 320 322 323 324 324 328 328 327 334 341 340 340 343 341 340 342 344 346 349 350 350 352 352 351 352 353 354 354 353 353 354 353 350 348 349 351 352 353 355 355 355 354 354 354 357 359 362 364 365 364 363 361 359 355 352 349 346 343 342 341 340 341 342 343 343 343 343 342
314 314 313 312 312 312 311 312 311 312 313 313 313 314 314 316 317 317 319 320 323 323 324 326 327 330 338 343 342 340 340 341 342 344 346 346 348 348 349 350 351 352 354 354 356 359 358 356 356 356 355 353 352 354 354 355 355 355 355 354 353 354 356 358 362 365 366 365 364 363 360 357 354 352 349 346 344 343 343 342 344 345 345 344 344 344
314 315 313 312 312 312 312 313 312 312 313 313 313 314 314 315 316 317 318 321 323 324 325 325 326 334 341 343 343 342 339 340 343 343 343 344 343 344 346 347 349 351 352 352 353 355 358 360 360 359 358 357 357 357 356 356 357 357 358 357 356 357 358 360 363 366 366 366 365 364 363 360 357 355 353 350 347 345 344 344 345 346 346 346 346 347
315 316 314 313 313 313 312 313 313 312 313 313 313 314 314 314 316 317 319 321 322 324 326 324 327 339 344 340 339 342 340 339 339 339 339 340 340 342 343 344 346 347 348 348 348 347 350 356 360 360 361 360 359 358 357 356 356 357 359 360 360 360 362 363 365 366 367 367 366 365 364 362 359 357 354 352 350 348 346 346 347 348 349 349 349 350
316 316 315 314 313 313 312 312 313 313 314 314 313 314 315 315 315 317 319 321 320 321 323 325 330 339 341 337 338 340 339 338 335 334 335 336 337 339 340 340 342 343 344 346 346 346 346 349 353 357 360 361 360 358 357 357 357 357 357 358 360 362 364 364 366 367 367 367 367 366 365 363 361 358 356 354 353 351 350 349 349 350 351 352 351 352
314 315 317 317 315 313 313 312 314 315 314 315 315 315 315 315 316 318 319 320 322 324 327 331 333 336 338 337 338 338 336 334 332 331 333 334 335 336 337 338 339 340 342 343 344 346 347 346 348 353 358 361 362 360 358 357 355 356 355 357 360 362 364 365 365 366 366 367 367 367 366 365 363 360 358 357 355 354 353 351 350 351 352 354 353 354
315 315 318 319 316 314 313 313 315 316 315 315 315 314 316 319 321 322 321 323 328 330 331 332 333 334 336 337 336 336 334 332 330 329 330 331 333 334 334 335 336 338 341 342 343 345 346 347 348 350 352 357 362 363 363 360 358 356 357 358 359 362 364 365 365 366 366 367 367 366 365 365 363 361 359 358 356 355 355 353 352 352 354 355 356 355
316 317 319 318 316 315 314 314 316 316 314 314 315 316 320 325 327 328 329 330 330 330 330 331 331 331 333 333 333 333 333 332 330 328 328 329 331 332 332 333 334 335 338 340 341 342 344 345 347 347 347 348 355 360 363 364 363 361 361 359 358 361 364 365 364 365 366 366 367 366 365 365 364 362 360 359 357 357 356 354 354 353 354 356 357 357
315 316 318 317 316 315 314 313 314 316 314 314 316 321 324 326 328 330 331 331 329 327 328 329 328 328 329 331 331 332 333 334 332 328 327 328 329 329 330 331 333 334 336 338 339 340 342 343 345 346 345 344 346 351 357 360 362 363 363 361 359 360 362 364 365 364 366 367 366 366 365 365 364 363 361 360 359 357 357 356 354 353 354 356 358 358
314 315 317 316 316 316 315 313 314 315 315 316 320 324 324 323 324 326 328 331 328 326 327 328 327 327 327 329 330 330 333 335 332 328 327 327 328 327 328 330 333 335 336 337 337 340 342 343 344 345 345 344 344 345 348 351 356 360 362 361 361 362 362 363 364 364 364 366 366 366 365 365 364 364 362 361 359 358 357 356 355 354 354 356 358 358
314 316 317 316 316 316 315 314 314 314 317 320 322 321 319 320 321 322 326 329 327 325 326 326 326 325 325 327 328 329 330 331 330 327 326 327 327 327 326 328 332 334 335 336 337 339 341 343 344 344 345 345 345 344 344 347 352 358 360 360 360 362 363 363 363 364 364 364 365 366 365 365 364 363 362 361 360 358 357 356 356 355 354 355 357 358
314 317 317 316 316 315 315 315 314 314 318 321 319 318 318 320 320 322 326 328 326 325 325 325 324 324 324 325 326 326 327 329 329 326 325 326 327 326 325 326 330 333 334 335 336 338 340 341 342 344 345 346 346 346 345 347 353 358 361 362 361 361 361 362 364 363 363 364 365 366 366 365 364 364 363 363 362 360 358 357 357 356 356 355 355 357
315 316 316 315 315 314 315 316 314 314 319 320 318 317 319 320 320 322 325 326 324 324 324 323 323 323 323 323 324 324 325 327 326 325 325 325 326 325 323 325 328 331 333 334 336 337 339 340 342 343 345 346 347 348 346 348 354 360 362 362 362 361 360 361 363 363 362 363 364 365 366 366 364 364 364 364 362 361 360 359 358 357 357 355 355 356
316 316 315 315 315 315 315 315 314 315 318 318 316 316 318 322 324 323 323 323 323 323 324 323 322 322 322 322 322 322 323 324 324 324 324 324 325 325 323 323 326 330 331 333 336 337 338 340 341 342 345 346 348 349 348 350 354 359 362 363 362 360 359 359 362 362 362 362 362 364 366 365 365 365 365 364 364 363 361 361 360 359 358 357 356 356
314 315 315 316 316 315 314 314 315 316 317 315 315 316 318 321 322 320 320 321 322 322 323 322 322 322 321 321 321 321 322 323 323 323 324 324 324 325 322 321 324 328 330 331 333 336 338 340 340 341 344 346 348 350 351 352 355 359 363 364 362 359 358 358 359 362 362 361 362 363 365 366 365 366 365 365 365 364 363 362 362 360 360 359 358 357
313 314 316 316 315 315 315 315 316 317 315 314 315 317 319 319 318 317 318 320 321 322 322 322 322 322 321 321 321 321 322 322 322 322 323 324 324 324 322 320 321 325 328 329 331 334 336 339 340 341 342 344 348 350 352 354 357 359 362 363 362 360 359 357 357 359 362 361 361 362 364 365 366 366 366 367 366 365 365 364 363 362 361 360 359 358
314 314 315 315 314 314 315 315 315 314 313 313 314 316 316 317 317 316 317 319 320 320 321 321 321 321 321 320 320 320 321 322 321 322 323 323 324 324 322 319 320 323 325 326 329 332 335 338 339 340 342 344 347 350 352 355 358 361 362 362 362 362 361 357 354 357 361 362 361 361 363 364 366 366 367 367 367 366 366 365 364 364 363 361 361 359
314 313 313 313 313 313 314 314 313 313 312 312 312 313 314 315 316 317 318 318 318 318 319 320 320 320 321 320 320 319 321 321 321 322 322 323 323 324 322 320 319 321 323 325 327 331 334 336 338 340 342 345 348 350 352 355 358 361 362 362 362 361 361 357 354 356 361 362 361 361 363 364 366 367 367 368 367 367 367 367 366 365 364 363 362 360
313 312 312 312 312 313 314 313 312 311 310 310 311 313 313 313 313 315 316 317 317 317 318 319 319 319 320 320 320 320 320 320 320 321 322 322 323 323 323 320 319 319 321 324 326 329 332 335 337 338 340 343 347 350 352 355 358 360 362 364 364 362 362 360 357 357 361 362 361 362 362 364 365 367 368 369 369 369 369 368 366 366 366 365 364 362
312 312 312 311 310 311 312 312 311 309 309 310 311 311 311 311 312 311 313 315 316 317 317 318 318 318 319 319 320 320 320 320 320 321 322 322 322 323 323 322 320 319 320 323 326 329 331 333 334 335 337 340 344 346 349 352 356 359 362 365 367 367 367 365 361 360 362 363 361 363 363 364 365 366 368 369 369 369 369 368 367 366 366 366 365 364
312 311 311 310 310 310 311 311 310 309 310 310 310 310 310 310 311 311 312 313 314 316 317 318 318 318 318 318 319 319 320 320 320 321 321 322 322 322 323 322 321 320 320 322 325 328 329 331 332 333 335 337 340 343 346 350 354 358 361 364 368 370 370 369 366 363 363 363 362 362 363 363 365 366 367 368 369 369 369 369 368 368 368 367 367 365
311 311 311 310 310 310 310 310 309 309 309 309 309 309 310 310 311 312 313 314 314 314 316 317 318 317 317 317 318 319 319 320 320 320 321 321 322 322 323 323 322 321 321 321 323 326 328 329 330 331 332 334 337 340 343 347 350 356 359 363 366 368 369 370 370 367 364 364 364 364 364 364 365 367 367 368 369 369 369 369 369 369 369 368 367 366
311 311 311 310 310 310 309 309 309 309 309 309 309 309 309 310 311 313 314 315 315 315 315 316 317 317 317 317 318 318 319 320 320 320 321 322 322 322 323 322 322 323 322 321 322 324 326 328 329 329 329 333 335 337 340 344 347 351 357 361 363 366 367 367 369 369 368 366 364 364 365 365 365 367 368 367 368 369 369 369 370 369 370 370 368 367
Wind_Speed
11 4 4 5 5 7 9 10 11 10 11 13 10 7 7 7 5 9 9 11 21 13 11 15 15 14 11 11 17 23 25 19 17 18 19 24 25 24 28 29 29 32 32 31 31 33 34 35 34 34 33 33 34 32 31 34 33 32 32 30 30 32 30 28 28 28 29 28 24 24 26 24 22 21 20 20 17 13 11 11 12 13 12 12 12 12
11 5 5 8 8 10 10 10 12 12 13 13 9 7 8 7 7 10 10 12 18 11 10 13 15 16 15 14 17 21 19 15 20 21 18 22 24 23 26 28 29 31 33 31 31 33 34 36 35 35 34 33 35 34 33 35 34 32 32 30 31 33 31 30 29 29 30 29 26 26 27 25 24 21 19 18 16 13 12 11 12 13 13 12 12 12
6 5 7 9 9 10 11 10 11 12 12 10 7 6 6 6 7 11 9 10 13 8 10 15 13 12 13 14 17 18 17 17 23 24 22 23 24 24 24 27 29 31 34 33 32 33 35 35 35 36 35 35 36 34 33 36 35 33 32 31 31 33 33 31 30 28 27 27 24 24 26 25 23 21 18 16 13 12 12 10 11 13 13 13 13 12
4 6 10 12 10 10 11 11 11 10 8 6 6 5 5 8 7 7 5 5 10 8 12 15 10 9 11 11 13 19 21 21 24 27 26 26 27 27 26 26 29 32 36 35 34 34 35 34 36 37 36 36 36 34 35 37 36 34 33 33 32 33 34 31 29 28 25 25 23 21 23 23 20 20 19 18 15 13 10 8 10 13 14 13 13 11
6 8 13 14 12 12 11 10 10 7 5 6 7 6 6 9 10 8 7 3 5 9 14 14 5 4 10 12 11 16 20 19 24 28 26 26 28 29 28 26 27 33 36 37 37 35 35 35 36 39 37 36 37 37 37 39 38 36 35 34 32 33 34 32 30 28 26 26 24 22 22 20 18 19 21 21 19 16 11 9 10 13 14 12 12 11
8 12 13 11 11 12 10 9 8 6 5 5 7 8 9 11 14 13 11 9 4 3 12 14 6 2 9 13 12 13 14 15 19 23 24 28 28 28 29 27 27 31 34 37 38 36 37 37 36 39 39 37 38 39 39 39 39 38 36 35 33 32 33 32 31 30 29 28 26 25 24 22 20 21 23 21 20 19 14 11 11 13 13 13 12 12
5 10 12 10 9 11 10 8 8 7 5 4 5 8 10 12 13 14 11 7 4 1 6 10 6 3 6 9 13 14 15 15 16 16 21 28 30 30 32 32 31 32 33 36 39 37 38 40 38 40 42 39 39 40 40 40 40 38 37 36 35 34 33 33 33 32 31 30 28 28 27 25 23 22 23 22 20 19 15 12 11 12 12 12 12 12
4 8 9 10 10 7 7 6 7 9 6 3 6 8 9 10 11 13 10 6 5 4 3 6 4 5 4 8 13 15 15 15 15 13 17 25 31 33 35 36 35 34 34 37 39 37 37 41 41 40 43 41 39 40 41 41 41 39 38 37 37 35 34 34 35 34 33 32 30 30 29 27 25 23 23 23 22 19 15 13 11 10 11 11 11 11
7 6 6 8 9 6 5 5 8 10 7 4 7 10 9 7 9 10 7 4 4 5 5 7 3 3 5 9 12 14 14 13 15 16 16 22 30 35 36 39 39 37 36 37 40 39 36 39 43 41 41 41 39 40 41 41 41 40 39 39 38 37 35 35 37 36 34 33 31 31 31 28 26 24 22 22 21 19 16 15 13 10 9 9 10 12
9 9 6 5 6 4 6 7 6 8 6 5 8 10 9 7 6 5 4 2 2 3 6 8 5 2 3 7 10 11 12 13 15 16 16 22 31 35 38 40 41 40 37 36 39 39 35 38 42 41 41 40 38 39 40 41 41 41 40 40 40 39 37 36 38 38 36 35 33 33 33 31 29 27 24 22 21 19 17 16 16 13 10 9 10 11
12 17 14 6 5 6 8 8 8 8 5 3 6 7 7 7 6 4 3 2 3 2 6 8 8 4 3 6 11 12 15 18 16 14 14 20 28 34 38 41 41 41 38 37 39 38 35 38 41 40 41 41 39 38 39 41 41 42 41 42 42 41 39 37 38 40 39 37 35 34 34 33 32 29 26 24 23 21 19 17 17 15 13 11 10 10
10 13 9 6 8 9 7 6 6 8 5 4 4 4 4 4 4 3 3 4 1 4 5 7 9 6 4 5 10 15 20 22 18 16 17 18 26 33 37 40 41 40 38 37 38 36 35 39 40 41 42 42 41 39 40 42 42 43 42 43 43 43 42 40 38 39 40 39 37 36 35 34 33 31 28 26 25 23 22 20 19 18 16 14 12 11
7 8 5 7 11 7 4 5 4 4 4 5 5 3 2 2 2 2 1 1 2 4 5 7 8 6 5 5 7 13 17 19 18 20 24 25 30 36 39 41 42 42 40 38 37 36 37 40 41 42 43 43 43 41 41 43 43 44 44 43 44 45 44 42 40 39 40 41 39 37 36 35 34 32 30 28 26 24 23 22 21 20 18 16 14 13
3 6 7 5 5 4 4 4 2 2 3 4 3 2 2 2 2 2 2 2 3 4 6 9 8 4 3 5 6 8 12 22 26 27 32 36 38 40 42 43 43 44 42 39 38 38 39 41 42 43 44 44 45 43 43 43 43 44 44 45 45 45 46 45 42 40 40 41 41 40 38 36 35 34 32 30 28 26 25 23 22 21 19 17 15 13
4 5 4 2 4 6 6 6 5 4 3 4 2 2 3 3 2 3 3 4 4 4 7 9 6 2 3 5 7 8 7 23 35 35 36 39 40 41 41 41 41 43 41 39 41 42 41 43 42 43 45 45 46 45 43 44 44 45 45 46 46 46 46 46 44 42 40 40 40 41 40 38 37 36 34 32 30 28 26 25 24 22 21 19 16 14
6 6 4 8 13 11 6 5 8 6 4 3 3 4 5 4 3 3 3 4 4 3 4 6 5 4 5 6 7 10 10 13 30 34 32 32 34 35 36 37 39 41 40 38 41 43 43 44 43 43 46 46 46 46 45 46 46 46 46 46 46 46 46 47 46 44 41 40 40 41 41 41 39 38 36 34 32 30 28 26 25 24 22 21 18 16
5 7 8 15 17 12 13 14 8 8 4 2 3 5 6 5 4 2 4 6 4 3 3 4 5 4 4 6 8 10 11 8 18 26 25 28 32 33 34 38 39 40 40 39 40 41 43 45 44 43 45 47 48 48 47 48 48 48 48 47 47 47 47 47 48 46 43 41 40 40 41 41 41 40 39 37 35 33 31 29 27 26 24 22 21 19
5 8 10 11 13 17 23 27 16 7 9 3 4 4 3 3 3 1 1 3 3 3 3 4 6 4 5 5 8 11 12 9 15 22 22 26 32 32 34 39 41 41 42 41 41 41 42 45 47 45 44 47 50 50 49 48 48 48 47 47 47 47 48 48 48 48 45 43 42 40 40 41 42 42 41 39 37 35 34 32 30 28 26 25 23 21
5 6 10 7 8 17 21 18 15 5 11 11 7 5 0 1 3 3 1 2 3 3 3 6 7 4 5 5 9 13 13 10 15 23 22 22 28 31 35 40 42 42 42 41 41 42 42 44 47 47 45 46 49 50 49 48 47 47 47 46 46 46 46 47 47 48 47 45 43 42 40 40 40 41 42 41 39 38 37 35 33 31 29 27 25 24
3 1 7 7 8 13 13 5 5 8 2 10 9 5 2 1 2 3 2 2 3 2 2 5 6 4 4 6 10 15 13 9 12 22 22 21 28 34 35 38 40 40 41 41 42 43 44 45 46 48 46 45 47 48 48 47 46 47 47 46 45 45 45 45 46 48 48 47 46 44 42 41 41 41 41 41 40 40 39 37 35 33 31 29 28 26
3 0 5 9 10 9 7 4 4 10 9 5 5 5 4 3 2 2 3 4 4 3 2 3 4 5 5 5 9 13 14 11 11 20 21 22 33 39 39 41 42 41 42 44 44 44 45 45 46 48 47 44 45 46 47 47 47 46 47 47 46 45 45 46 46 47 48 48 47 46 44 43 42 41 41 40 40 40 39 38 37 35 33 31 30 28
3 2 4 8 8 6 8 11 12 12 11 9 6 6 5 4 3 3 4 4 4 4 2 3 4 5 6 3 2 5 12 13 11 18 21 25 37 42 40 42 44 42 42 43 45 44 44 45 46 46 46 43 43 45 47 47 47 46 47 47 47 46 46 46 46 46 47 48 48 48 46 45 43 43 42 41 41 40 39 39 37 36 34 33 32 30
5 2 4 7 6 9 15 18 17 14 12 11 8 6 6 5 3 3 4 4 4 5 5 4 3 7 8 5 9 11 9 14 12 14 18 25 37 40 39 42 43 43 44 44 44 44 44 45 46 47 47 45 43 45 47 48 47 46 46 46 46 46 47 47 46 46 46 47 48 49 47 46 45 45 44 43 43 41 40 39 38 37 36 35 33 32
8 1 3 6 6 9 15 16 15 11 8 7 6 6 7 8 7 2 2 5 3 1 2 4 4 7 9 7 11 12 3 13 15 20 26 27 31 34 35 38 40 41 43 43 41 41 42 44 45 46 48 48 47 45 46 48 48 47 47 46 46 47 47 46 45 45 45 46 47 48 48 48 47 46 46 45 44 43 42 41 40 39 38 36 35 33
6 2 3 5 5 6 9 9 7 7 9 6 7 10 10 12 13 7 3 5 3 5 7 1 4 5 7 11 14 15 12 6 3 19 28 26 27 34 37 38 41 42 40 41 41 39 40 43 45 46 48 50 50 49 48 48 49 49 49 48 47 46 45 46 45 44 45 46 46 48 49 50 49 48 48 47 46 45 43 42 41 40 39 38 36 35
3 2 2 2 3 4 5 4 4 6 8 7 9 13 13 13 14 8 3 3 2 6 9 3 2 6 8 13 18 19 20 19 16 17 17 13 7 22 37 40 39 40 39 39 41 40 40 43 45 47 49 50 51 51 50 50 50 50 50 49 48 46 43 43 43 42 43 44 46 48 49 50 51 50 49 48 47 46 44 43 42 41 40 39 37 35
1 2 2 3 5 6 7 8 9 10 10 10 13 17 15 12 12 8 3 2 4 7 6 3 3 11 11 12 17 17 18 19 18 20 23 25 23 6 27 46 42 41 43 42 43 42 40 41 44 46 47 48 50 52 52 52 52 51 50 49 49 48 45 42 40 40 41 43 45 48 50 51 51 51 50 49 48 46 45 44 43 42 41 39 38 36
1 3 5 7 9 10 12 14 16 14 13 14 15 16 15 12 10 9 5 4 6 6 5 5 9 13 13 9 13 13 14 15 14 17 22 25 35 33 13 28 23 18 19 19 23 29 33 37 42 45 47 46 46 49 50 50 51 50 50 50 50 50 48 44 40 39 40 42 45 47 50 52 52 51 50 49 48 47 46 45 44 42 41 39 38 37
2 4 6 8 11 12 13 15 15 14 13 15 14 14 15 13 9 10 8 4 4 4 6 9 10 11 13 8 10 11 11 13 14 19 25 28 35 40 33 27 28 31 30 26 18 8 13 25 33 38 43 44 44 45 47 48 50 49 49 49 48 49 49 45 41 40 40 42 44 47 49 50 51 51 50 49 48 47 47 45 44 42 41 39 38 38
3 3 7 10 11 12 13 14 15 14 13 15 14 13 14 13 11 13 13 7 5 8 10 10 11 10 9 6 3 8 14 18 20 23 29 32 32 33 34 34 34 33 33 33 30 25 15 3 16 27 33 35 36 37 37 37 38 41 44 47 46 45 45 43 41 41 42 43 45 46 47 48 50 50 50 50 49 47 47 46 44 43 41 40 38 38
2 3 9 9 8 9 12 13 13 12 13 14 14 12 12 12 12 13 12 6 5 9 9 8 10 8 5 7 6 9 20 24 23 24 26 30 31 30 30 31 30 30 30 30 28 24 24 22 11 7 19 26 29 30 29 27 26 26 29 35 42 43 41 41 42 42 42 43 45 45 45 47 48 49 50 50 49 48 47 46 44 43 42 41 39 37
3 2 6 6 5 6 10 13 13 13 14 14 13 12 11 11 11 10 8 6 6 9 9 8 8 4 5 12 11 9 18 20 20 22 25 27 30 29 29 29 29 29 27 26 26 21 19 23 23 17 5 10 20 27 30 30 29 27 24 26 33 38 40 41 42 43 43 43 44 45 45 46 47 48 50 49 49 49 47 46 45 44 43 42 40 38
3 1 2 3 5 6 9 13 14 11 10 9 8 8 8 9 11 10 6 8 10 9 6 5 3 2 6 12 13 11 13 15 18 23 25 26 29 28 28 28 28 27 25 23 23 22 19 17 19 21 18 9 4 16 27 32 32 31 30 30 29 31 38 42 42 43 44 44 45 46 45 46 46 47 49 49 49 49 47 47 46 45 44 43 41 39
2 2 1 1 3 6 10 12 11 7 5 6 6 7 8 9 11 10 8 8 10 7 6 6 4 5 8 9 12 12 11 16 21 26 27 27 27 26 26 27 27 26 25 22 19 19 20 16 14 15 15 13 11 3 12 25 29 28 29 33 33 31 36 41 41 42 45 45 45 46 46 46 46 47 48 48 48 48 48 48 47 46 45 44 42 41
0 1 1 0 1 5 8 8 6 5 5 7 9 10 11 10 10 9 6 3 6 11 13 11 8 7 9 9 11 15 9 21 27 29 29 28 27 26 25 26 27 26 25 24 20 18 18 14 11 12 9 9 10 10 3 9 17 19 22 31 35 34 36 41 42 42 44 46 46 46 47 47 47 46 47 47 48 48 48 48 48 47 46 45 44 43
2 2 2 1 0 2 4 5 4 4 7 12 12 10 9 8 9 10 4 6 11 12 10 9 8 9 9 10 12 18 12 18 27 29 29 27 26 25 25 24 25 24 23 23 21 19 18 15 13 13 11 7 3 3 3 4 8 12 16 24 33 36 37 41 44 43 43 46 48 48 48 48 48 47 47 47 47 48 49 49 48 48 47 45 45 44
4 3 2 1 2 1 3 5 5 6 10 11 9 5 7 7 6 5 3 5 10 12 10 8 7 10 12 13 15 17 13 9 16 22 27 26 23 23 23 23 24 22 21 21 21 20 19 18 16 14 12 10 6 4 4 7 9 11 12 15 24 34 40 42 44 45 45 45 47 49 49 48 49 48 47 47 48 48 49 49 48 48 47 46 45 44
5 3 2 2 2 1 2 4 5 6 5 5 5 8 14 16 12 6 2 1 6 11 13 9 6 10 13 15 18 18 11 5 6 13 22 25 22 22 25 25 25 24 22 20 20 22 21 20 18 16 14 13 11 9 8 10 12 14 16 16 17 25 37 44 45 46 47 47 47 49 49 49 49 49 48 48 49 49 49 49 48 48 48 47 46 45
5 3 4 3 1 1 1 2 4 5 2 4 9 14 21 26 21 11 4 1 3 12 14 11 9 11 13 15 18 16 10 4 3 9 19 23 21 23 26 27 26 25 23 21 20 22 23 22 21 19 16 14 13 12 12 13 13 13 17 20 19 20 28 40 46 46 47 48 46 47 49 49 48 49 49 49 50 50 49 49 48 48 48 48 47 44
3 1 3 3 3 3 3 3 3 3 2 5 11 16 23 27 19 8 2 1 5 12 15 12 11 12 15 16 16 11 6 5 5 8 15 18 19 22 25 27 27 25 24 22 20 21 23 23 22 21 18 16 14 13 14 15 16 15 16 19 23 23 26 34 44 46 46 46 45 45 47 49 49 49 50 49 50 50 49 49 48 47 47 48 48 45
2 1 1 2 3 5 5 5 3 3 1 3 12 20 23 21 11 2 0 4 9 12 14 12 11 12 14 16 14 10 8 10 11 13 16 17 19 22 24 24 24 23 23 23 21 21 22 22 21 21 19 17 16 15 15 16 17 19 18 18 22 27 28 31 39 46 45 45 46 45 46 49 49 49 50 49 48 48 48 48 48 48 47 48 48 47
2 1 1 2 2 3 3 3 4 3 1 7 18 20 17 10 3 2 6 11 14 13 13 11 10 10 12 14 13 13 14 14 14 16 17 18 19 21 23 24 24 23 23 23 22 21 23 24 23 22 20 17 16 16 16 17 19 20 21 21 23 28 30 28 33 43 46 45 46 46 45 47 49 49 48 48 47 47 48 48 48 47 47 47 48 48
1 1 1 1 0 1 3 4 5 3 1 13 19 13 8 4 4 9 15 18 16 13 12 12 10 9 11 11 11 13 14 14 14 15 17 19 19 19 23 24 24 25 25 25 25 24 24 25 26 25 23 20 18 17 16 18 20 21 22 23 23 27 29 27 30 39 46 46 46 47 46 46 48 48 47 47 47 47 47 47 46 47 47 47 47 47
1 1 1 1 1 1 2 2 1 3 8 16 14 7 4 7 10 14 15 17 19 16 13 12 12 10 10 11 11 12 13 13 14 14 15 17 17 18 23 24 23 24 25 25 26 25 24 25 26 26 25 23 21 19 18 19 20 22 24 25 24 24 27 28 29 36 44 47 46 47 47 45 46 47 46 46 46 46 46 46 46 46 46 46 47 47
2 1 1 1 2 2 3 6 9 12 15 17 15 14 16 16 16 16 15 16 20 19 15 13 13 12 12 11 11 12 12 12 14 14 12 14 15 18 22 23 22 24 25 25 25 25 24 24 24 25 25 23 21 20 19 19 20 23 25 25 24 24 25 28 30 34 42 48 47 47 47 46 45 46 45 45 45 46 46 46 45 46 46 46 47 48
2 1 1 2 3 4 7 12 12 11 16 20 20 20 20 19 18 17 17 18 20 20 18 16 15 14 13 11 11 12 12 13 15 15 13 12 13 16 20 22 21 23 24 24 24 25 25 23 22 22 23 22 19 18 19 18 19 22 24 23 24 24 24 26 30 34 41 47 48 47 47 45 45 46 45 44 45 45 45 46 46 46 46 46 47 48
3 2 2 3 3 3 4 6 6 14 21 23 21 19 18 18 19 20 20 21 22 22 21 19 17 16 15 13 12 11 12 13 14 15 14 13 12 15 19 21 22 23 24 23 24 24 24 24 22 21 23 22 19 18 19 18 18 20 20 20 21 22 22 25 29 34 41 47 48 47 46 46 45 45 44 43 43 43 44 45 46 46 47 47 49 50
1 3 4 2 3 4 7 7 15 25 25 18 15 19 21 22 25 26 26 25 25 24 23 21 20 18 17 17 15 13 13 13 13 14 14 13 13 15 17 18 20 23 23 23 23 23 23 24 23 22 23 22 20 19 19 18 19 19 19 17 17 18 20 24 28 33 40 47 48 46 46 46 45 45 44 42 42 42 43 44 45 46 48 50 51 52
3 5 3 3 5 6 7 7 18 23 18 12 16 23 25 26 28 30 29 28 27 26 24 23 23 22 20 20 18 17 17 15 13 13 13 13 14 15 15 15 18 20 22 22 22 21 22 23 24 23 23 23 21 20 19 18 18 20 19 17 15 14 16 21 28 34 41 46 48 47 46 45 45 45 43 42 42 41 42 42 44 45 47 48 50 51
2 2 2 3 5 4 4 9 14 12 10 15 23 26 26 27 29 29 29 29 29 28 25 24 25 25 22 21 21 20 19 18 16 14 13 12 14 15 14 16 17 18 20 20 19 19 19 21 23 24 24 24 22 19 19 18 17 19 20 19 17 15 15 18 25 35 43 46 47 46 46 46 45 44 43 42 41 41 42 42 43 44 45 46 47 48
3 3 2 1 3 5 8 12 13 11 13 20 26 27 26 27 26 26 27 28 28 29 28 26 26 26 24 23 22 21 21 20 17 15 14 14 14 14 14 16 18 18 19 19 19 19 19 20 23 26 27 26 24 21 19 18 16 16 19 21 20 19 18 18 21 28 37 43 45 45 46 46 44 43 44 43 42 42 43 43 43 43 45 46 45 45
Wind_Direction
200 214 213 219 229 220 216 218 236 256 261 270 280 288 280 274 252 233 242 152 142 148 170 168 149 160 196 190 173 172 175 173 164 173 176 170 176 176 174 181 182 182 185 188 186 180 177 178 177 176 177 177 179 180 178 181 184 184 185 187 182 179 181 181 176 174 171 171 175 171 164 160 160 162 168 174 179 183 173 165 166 164 162 157 151 150
196 225 225 218 229 233 234 223 222 239 257 270 279 287 289 285 282 261 239 164 149 153 165 166 152 160 183 179 167 167 171 175 171 174 176 169 174 180 180 183 183 180 183 188 188 181 176 177 176 176 177 177 179 180 179 183 186 185 188 190 184 181 183 185 183 180 179 180 179 173 167 162 159 162 171 173 172 172 170 170 168 165 165 160 156 154
192 226 237 233 233 230 241 244 234 229 237 256 269 278 285 281 288 280 255 160 149 149 154 167 162 159 169 162 163 167 169 179 179 176 175 171 173 183 184 183 182 178 180 188 189 182 176 176 177 176 178 179 181 181 179 184 188 186 190 192 188 185 187 188 187 184 183 183 183 176 171 165 159 165 170 163 167 168 162 168 170 168 168 163 159 155
216 210 218 231 241 236 235 239 246 246 235 239 249 258 269 272 278 280 283 148 160 169 157 165 163 148 157 161 169 173 171 177 180 179 179 177 178 184 184 183 183 177 177 185 188 183 177 177 179 178 179 181 182 182 181 186 189 188 192 194 193 191 190 189 187 184 181 182 182 176 174 171 164 167 164 158 175 185 170 174 176 172 172 165 162 158
243 234 218 214 222 237 244 234 233 247 250 233 234 244 259 269 272 274 302 312 197 180 158 152 136 139 163 169 173 172 172 176 176 176 180 183 185 186 185 185 184 179 178 182 186 186 180 179 182 181 181 183 184 184 185 188 191 191 194 196 197 197 193 190 187 182 179 181 179 169 169 173 169 165 160 160 179 193 188 189 182 173 173 169 166 165
237 251 246 228 211 218 237 244 232 224 244 252 229 224 238 263 274 279 301 320 318 181 159 149 128 202 186 171 167 167 170 176 175 174 175 181 186 188 189 188 182 181 182 182 184 186 184 182 184 183 182 184 186 187 187 190 192 192 194 197 199 200 195 190 187 184 181 183 180 169 167 174 175 166 164 168 179 188 190 187 180 172 174 174 168 168
221 236 246 251 232 212 214 234 246 232 226 249 242 227 224 242 266 279 294 303 310 305 177 170 155 177 202 182 173 172 172 175 181 178 170 175 183 188 193 192 185 185 187 184 183 185 185 185 185 184 184 185 188 188 188 190 192 193 194 196 199 201 199 191 188 188 185 185 183 174 170 178 183 174 170 176 181 187 187 177 171 169 175 179 170 169
243 233 235 252 254 236 215 209 228 238 236 228 249 257 239 230 246 263 275 269 267 301 258 228 195 137 181 204 188 179 176 175 182 181 171 176 183 187 193 193 190 191 190 187 185 184 185 187 187 185 184 186 188 188 188 190 192 194 195 197 200 202 201 194 190 192 190 188 184 175 170 177 187 183 178 181 183 186 188 182 178 172 174 179 175 175
269 234 211 242 253 250 242 225 208 219 236 239 248 267 265 248 242 247 257 258 267 293 290 274 260 142 185 202 188 181 177 178 185 183 177 179 183 186 191 192 193 194 192 190 188 186 187 189 188 187 185 185 189 190 190 192 194 195 196 198 200 203 204 198 193 194 195 193 188 178 173 176 183 187 187 187 184 180 182 191 196 190 181 179 180 183
293 293 309 290 263 252 253 262 246 223 228 237 247 267 280 282 277 271 271 290 314 269 262 276 274 237 214 192 176 177 179 185 191 186 182 182 182 186 188 191 193 192 193 196 192 188 190 191 189 188 188 186 190 193 192 193 194 196 197 198 200 204 206 201 196 197 198 197 194 185 180 179 181 186 189 186 181 177 179 189 195 197 198 185 181 186
292 299 307 298 267 270 256 255 261 257 268 270 250 258 275 291 302 303 311 14 21 284 263 276 276 278 263 190 170 177 187 189 189 185 182 181 182 186 188 190 191 191 195 199 196 193 194 193 190 190 190 189 190 193 194 193 195 197 200 201 202 204 207 205 200 199 200 200 199 195 189 186 187 191 192 184 180 181 182 186 191 196 201 192 184 189
278 287 293 277 279 291 281 262 248 248 269 290 261 238 248 279 300 309 355 34 20 273 285 291 282 276 266 211 178 186 193 186 180 180 179 180 183 186 189 190 191 191 193 196 196 195 193 191 190 190 190 190 190 193 195 195 196 198 201 202 203 204 206 207 204 202 202 203 203 202 199 196 195 198 199 193 189 187 187 188 192 196 202 201 197 198
257 254 255 276 284 289 293 298 290 252 252 255 245 212 183 230 267 272 11 43 233 255 282 296 296 274 254 253 202 192 194 187 186 183 178 180 182 185 189 190 190 190 190 192 194 195 193 190 189 190 191 191 191 193 196 196 197 198 201 203 204 204 206 208 208 205 204 205 206 206 205 203 202 203 205 205 201 199 197 197 198 201 205 209 208 206
281 261 240 238 271 258 240 257 289 282 245 244 237 156 155 196 217 234 185 190 241 259 258 268 289 280 247 281 248 211 190 182 188 189 182 183 184 184 188 188 188 189 191 194 196 194 192 191 190 191 192 192 192 194 196 197 198 199 201 203 205 206 207 207 209 208 207 208 209 209 209 208 207 208 210 211 209 207 205 206 208 210 212 215 217 213
333 305 240 152 353 305 259 229 237 274 250 232 223 169 216 225 202 230 182 165 205 231 223 227 248 214 183 267 269 269 223 174 178 188 186 185 186 184 185 186 186 189 193 195 195 193 192 191 192 192 192 192 192 194 197 197 199 200 202 205 206 207 207 207 209 210 210 211 211 212 212 212 211 212 212 214 215 213 212 211 214 216 217 220 222 222
331 304 313 355 333 313 306 264 240 263 285 245 210 205 222 221 219 249 240 225 220 230 229 213 215 190 189 240 254 266 266 183 172 181 183 181 183 181 180 184 187 190 193 191 190 192 193 192 192 192 193 194 193 195 198 199 200 201 204 206 208 209 209 209 209 211 212 213 214 214 214 214 214 215 215 216 217 218 218 218 218 219 219 221 224 226
352 288 315 344 326 316 340 330 276 222 242 294 232 216 212 212 225 241 264 279 279 269 264 231 224 212 194 240 250 246 257 218 167 171 176 175 176 176 180 185 188 189 192 191 190 191 192 193 192 192 193 195 195 196 198 200 201 203 205 207 208 209 210 210 210 211 213 214 215 216 216 216 216 217 217 217 218 220 221 222 223 224 224 224 226 226
16 289 304 343 326 323 338 335 317 226 195 226 281 244 198 209 258 264 263 281 273 257 254 251 254 223 178 216 240 233 239 223 170 165 172 171 172 177 182 185 188 189 191 193 194 193 193 194 195 194 195 198 198 198 199 201 202 203 205 207 208 209 210 211 212 212 213 214 216 218 217 217 218 219 219 219 220 221 223 224 225 227 227 227 227 228
14 304 304 337 333 328 335 333 326 292 192 203 253 284 283 166 252 249 243 247 255 262 257 269 274 235 190 194 206 216 231 225 176 167 171 170 173 180 184 186 188 189 190 191 192 193 192 193 194 194 196 198 199 199 199 200 202 203 206 208 209 211 212 213 213 213 214 214 216 219 219 219 219 220 220 221 222 222 224 226 226 228 229 229 230 230
8 296 287 324 357 338 327 305 332 350 255 212 238 281 306 275 233 221 219 219 236 254 246 268 277 256 227 196 190 204 219 223 182 169 173 172 174 181 184 187 188 186 187 189 190 193 193 194 195 195 196 197 198 200 200 201 202 203 206 208 209 211 212 213 214 214 215 216 217 219 220 221 220 220 221 222 223 223 224 226 227 228 229 229 230 231
358 152 272 315 348 339 304 277 351 357 339 289 276 294 283 274 296 291 254 221 218 228 236 271 274 268 262 220 194 194 198 213 191 170 174 175 175 181 184 185 186 185 187 189 190 192 194 196 197 196 197 198 199 201 201 201 203 204 206 207 209 210 211 212 214 215 217 217 218 219 220 222 222 221 222 222 223 224 225 226 227 228 229 229 230 230
357 340 299 309 331 319 289 300 320 331 325 313 308 305 289 263 259 274 267 236 216 211 216 273 277 263 271 293 296 220 200 208 193 166 173 179 177 182 184 184 186 185 186 189 190 191 193 195 196 195 195 196 198 201 201 201 202 204 206 207 208 210 211 213 214 215 218 219 218 219 221 222 223 222 223 223 223 224 225 225 226 227 228 229 230 230
343 297 301 299 304 299 290 295 304 307 302 295 292 309 318 304 278 259 285 292 254 209 200 235 282 273 274 316 322 292 211 189 191 165 167 178 178 181 182 182 184 185 186 187 189 191 192 195 196 196 195 194 195 198 200 201 201 203 205 207 208 211 213 214 215 216 218 219 220 220 221 222 223 223 223 223 224 225 225 225 226 227 228 229 230 231
346 318 327 315 304 297 290 291 295 300 308 303 306 342 351 347 350 334 331 349 321 252 195 209 225 266 287 330 319 304 182 171 186 164 161 174 176 175 178 180 182 185 187 187 187 189 192 194 195 195 196 197 197 197 198 199 201 202 204 206 209 212 214 214 214 216 218 220 221 221 220 221 223 223 223 224 224 225 225 226 227 227 228 229 230 231
351 3 7 337 318 317 308 302 310 333 353 344 319 337 348 350 352 352 19 19 356 2 6 320 206 252 313 5 356 353 22 27 141 144 154 167 172 174 176 181 188 189 189 190 189 190 191 194 196 195 196 199 200 200 200 199 200 201 203 205 208 211 212 213 213 215 217 219 221 220 220 221 222 222 223 224 225 225 225 226 227 227 228 229 229 230
345 340 7 338 298 309 309 314 337 338 338 325 311 325 333 343 351 349 2 15 341 350 352 321 247 298 329 16 13 11 23 20 27 66 86 85 131 189 183 180 188 190 188 189 190 191 193 195 197 198 199 201 201 201 202 201 201 201 202 205 207 208 210 211 213 214 217 219 220 221 221 221 221 222 223 224 224 225 225 225 226 227 228 228 228 228
327 286 273 246 255 270 276 289 302 302 305 308 312 319 321 334 350 340 325 14 345 333 320 266 338 330 331 19 20 11 26 30 28 34 39 41 29 356 192 186 188 190 192 193 192 192 194 196 199 201 202 204 204 204 204 204 204 205 205 206 209 210 211 211 212 214 216 219 220 221 221 221 221 222 223 223 224 224 224 224 224 226 227 227 226 225
262 269 265 252 254 263 270 278 287 291 296 300 303 309 310 320 336 321 309 359 348 332 307 309 349 336 318 1 25 15 25 32 28 26 25 32 36 40 108 168 166 157 164 175 185 191 195 198 201 203 204 205 206 207 208 209 210 211 211 212 212 213 212 212 212 214 216 219 221 222 222 221 222 222 223 223 223 223 223 223 222 224 226 227 225 223
285 273 285 278 272 271 272 276 283 287 290 289 291 301 307 313 321 307 300 329 336 298 278 299 324 320 301 324 22 23 26 31 30 32 31 34 42 48 62 77 68 63 67 65 66 103 179 198 204 205 206 206 207 209 210 211 212 214 215 215 214 213 212 213 213 214 216 219 221 222 222 221 221 221 221 222 222 222 222 222 222 222 224 226 225 222
17 301 298 294 293 293 287 281 279 282 285 286 289 295 301 308 310 298 290 293 302 285 278 299 319 312 291 287 348 25 33 38 36 33 35 37 40 44 51 57 56 55 56 55 51 48 48 114 200 206 207 205 206 208 209 209 211 213 216 216 214 213 212 212 213 214 216 219 222 222 221 220 219 219 219 220 221 221 221 221 221 220 222 225 225 222
90 309 307 302 302 305 302 292 280 279 281 281 284 282 281 288 287 281 280 283 292 286 288 327 335 319 316 313 315 30 41 42 40 33 33 37 37 38 43 46 48 47 43 44 48 44 34 36 51 179 202 204 204 202 200 203 208 213 219 220 217 215 213 211 212 215 217 219 221 221 220 219 219 218 218 219 220 221 220 220 219 219 220 223 224 222
135 305 313 310 298 292 301 302 294 290 284 276 276 276 271 275 277 275 288 305 298 295 312 351 348 316 334 332 329 30 49 49 47 34 28 33 35 35 37 37 39 41 36 32 36 35 26 29 35 38 56 196 205 205 203 205 208 213 223 228 224 217 212 211 213 216 218 219 220 220 220 219 219 218 218 218 219 220 219 218 218 217 217 220 222 223
178 238 296 309 299 289 294 299 301 302 293 275 269 273 267 266 270 272 288 297 287 285 308 351 9 359 360 348 342 10 42 52 54 46 33 29 31 33 33 31 30 33 32 28 26 20 13 15 22 26 34 51 176 211 211 210 211 215 222 229 231 221 211 211 214 217 218 219 219 220 221 220 219 218 218 219 219 219 219 217 217 216 216 217 220 222
237 263 312 323 293 291 294 298 304 306 290 280 285 300 305 296 285 275 256 265 292 324 15 32 30 25 33 17 338 342 35 52 49 51 46 33 29 29 28 26 24 22 23 23 17 9 9 9 0 5 27 51 58 70 212 212 212 215 218 223 228 225 214 212 215 218 218 219 219 221 221 221 221 220 219 219 219 219 218 217 216 216 215 215 217 220
152 262 317 90 246 294 298 299 298 274 260 287 300 315 326 331 335 321 271 230 9 24 37 31 11 7 40 44 334 320 29 61 49 45 45 37 29 24 21 21 20 15 13 13 6 359 3 1 336 336 9 55 66 63 93 205 215 221 223 223 225 223 217 215 216 218 220 219 220 221 221 221 222 221 220 219 219 218 219 218 216 216 215 214 215 218
181 194 172 137 210 306 295 275 267 277 300 309 311 324 339 353 12 1 0 68 45 37 42 31 12 3 15 32 355 327 347 52 49 38 35 33 28 21 16 14 12 10 7 4 359 350 344 339 328 329 345 5 42 94 131 179 209 229 236 234 232 228 221 218 217 218 221 221 220 221 222 222 221 221 220 220 219 218 219 218 217 216 215 213 214 217
225 203 151 163 185 169 277 271 275 298 305 305 306 338 352 348 10 8 358 50 35 31 38 33 24 16 1 1 4 347 339 29 43 28 21 24 23 17 12 7 4 4 1 357 353 343 332 329 327 325 324 323 316 293 251 226 228 237 241 242 240 233 225 221 218 219 221 222 221 221 222 222 221 221 221 219 219 219 219 219 218 216 215 213 213 216
238 220 145 153 184 164 279 281 283 281 277 291 322 354 349 339 340 340 309 19 19 17 29 35 27 21 5 354 2 6 5 27 32 8 6 11 13 8 4 2 0 359 357 352 345 337 332 331 329 324 319 313 304 293 273 251 248 249 242 243 249 239 228 222 219 220 221 223 223 221 221 222 222 221 221 220 219 219 219 219 219 217 215 213 213 215
249 212 139 150 210 218 240 267 270 264 267 340 342 344 339 332 331 329 311 196 353 358 15 29 27 22 12 1 6 16 30 47 13 354 1 5 6 4 1 360 357 355 353 352 346 338 333 329 325 321 316 310 301 291 275 261 256 257 248 244 250 254 240 227 221 221 222 223 224 222 220 221 223 223 222 221 220 220 219 219 219 218 216 214 213 214
272 209 159 195 223 222 236 248 255 268 324 346 336 333 330 329 331 334 321 265 332 350 9 22 26 23 14 9 15 25 35 25 347 349 2 4 2 2 1 359 357 352 348 346 344 340 335 327 321 319 315 310 305 297 284 270 263 263 260 251 248 255 253 238 228 224 224 224 225 224 221 221 223 223 223 222 221 220 219 219 219 218 217 215 214 214
298 288 237 253 249 248 249 241 252 271 238 344 339 338 336 332 329 340 52 301 311 336 1 17 27 27 17 15 18 13 3 1 355 359 9 9 3 0 359 0 360 355 348 344 341 338 335 330 324 319 315 312 311 304 291 280 270 264 263 260 252 248 250 248 237 228 225 226 227 226 223 221 222 223 223 223 222 220 219 219 219 218 218 216 215 214
350 345 316 297 281 281 263 251 275 270 166 346 342 348 354 348 305 286 323 309 304 323 347 0 18 27 17 14 11 359 355 357 358 2 8 7 4 359 355 357 359 357 352 347 342 337 335 333 329 322 316 312 310 307 296 283 274 267 265 267 258 244 244 253 246 232 227 227 228 227 225 222 221 222 222 222 222 220 220 219 218 218 218 217 215 214
27 302 304 326 4 312 263 256 260 226 321 341 340 351 21 19 279 299 314 308 306 322 336 336 348 8 10 7 1 351 350 353 354 356 358 360 3 358 352 354 357 357 355 350 345 341 337 333 329 325 322 318 312 309 306 291 278 272 270 268 259 246 244 253 252 237 228 227 228 228 226 223 221 221 220 220 220 220 219 219 218 218 218 217 215 214
150 251 316 358 29 310 245 243 275 284 317 335 338 331 323 311 297 302 309 306 308 316 320 321 329 341 346 349 347 339 337 342 344 345 351 359 1 352 349 352 353 354 356 353 347 342 336 333 330 326 322 320 314 309 307 298 286 278 271 264 260 255 248 249 251 241 230 227 227 228 227 225 222 221 220 219 219 219 219 219 218 217 217 216 215 215
229 213 182 212 249 263 254 268 288 304 323 339 340 322 313 311 309 308 303 297 302 309 313 315 316 316 319 322 325 324 320 325 333 335 343 356 356 348 347 350 350 352 356 356 350 342 337 334 332 327 323 320 318 310 301 295 290 281 272 264 264 264 254 246 247 243 232 227 226 226 226 225 223 222 221 219 218 218 219 218 218 217 217 216 216 215
195 153 158 237 267 278 268 264 276 314 342 341 329 318 314 317 324 324 313 303 300 300 301 303 303 304 307 305 306 309 306 311 325 333 338 343 346 347 346 344 344 349 353 355 353 347 339 335 332 330 325 321 318 311 299 292 289 282 274 269 267 265 258 249 246 242 234 227 226 225 223 222 221 221 221 219 218 219 219 219 219 218 217 217 216 216
106 54 320 279 303 324 286 273 322 349 342 330 323 324 326 327 331 329 321 316 310 300 292 289 288 293 298 292 288 294 294 299 314 326 334 338 340 344 346 344 343 347 350 354 358 354 344 340 341 340 335 327 322 316 305 294 286 278 272 272 269 263 259 255 248 241 233 227 224 224 222 220 219 220 219 218 218 219 219 220 220 219 219 218 217 217
47 339 318 314 341 295 263 291 343 341 330 318 323 332 331 326 322 319 314 312 310 304 294 284 280 284 289 288 285 287 289 295 304 311 320 332 335 336 344 347 344 344 345 348 355 357 351 346 349 351 346 337 331 326 315 301 290 278 268 265 265 260 258 257 250 240 231 226 223 222 221 220 219 218 217 217 217 218 219 220 221 221 221 220 218 216
258 302 327 333 315 280 260 312 344 338 323 311 319 323 323 321 318 314 309 304 302 300 296 288 281 279 282 287 290 290 288 289 292 297 307 325 330 330 339 345 343 344 345 345 351 358 355 350 353 357 353 345 340 333 322 307 292 280 269 262 259 254 250 249 245 238 230 225 222 221 221 221 219 217 216 217 218 219 221 222 222 223 224 223 221 219
241 304 1 325 303 292 300 332 341 331 303 305 314 316 316 316 313 310 307 303 297 292 291 289 286 283 281 283 287 290 291 291 290 292 302 319 325 324 330 337 338 340 341 342 348 357 356 352 354 360 358 351 346 343 334 321 303 285 273 263 254 246 240 234 231 229 226 222 221 221 220 219 217 215 215 217 217 218 220 222 223 224 225 225 223 223
200 196 159 255 281 278 295 313 321 310 293 300 308 312 313 314 311 308 308 306 297 288 283 282 284 284 282 280 281 282 287 291 291 290 296 308 316 316 321 332 337 335 334 342 350 357 0 356 353 358 2 356 352 352 347 337 325 303 277 262 253 244 237 229 223 223 223 221 220 220 220 218 216 214 214 216 218 218 219 221 223 225 226 226 224 224